Auburn, CA

12:55 AM PST on November 21, 2017 (GMT -0800)
Auburn Municipal

Weather History for KAUN - November, 2012

Change the Weather History Date:

Friday, November 2, 2012

  Actual Average Record
Temperature  
Mean Temperature 57 °F -  
Max Temperature 66 °F 69 °F 136 °F (2011)
Min Temperature 48 °F 45 °F 37 °F (2003)
Degree Days  
Heating Degree Days 8    
Growing Degree Days 7 (Base 50)    
Moisture  
Dew Point 49 °F    
Average Humidity 80    
Maximum Humidity 100    
Minimum Humidity 52    
Precipitation  
Precipitation 0.00 in - - ()
Sea Level Pressure  
Sea Level Pressure 30.05 in    
Wind  
Wind Speed 1 mph (West)    
Max Wind Speed 8 mph    
Max Gust Speed -    
Visibility 10 miles    
Events      
Averages and records for this station are not official NWS values.
T = Trace of Precipitation, MM = Missing Value Source: NWS Daily Summary

Daily Weather History Graph

Daily Weather History Graph

Search for Another Location

Airport or City:

Trip Planner

Search our weather history database for the weather conditions in past years. The results will help you decide how hot, cold, wet, or windy it might be!

Date:

Astronomy

Nov. 02, 2012 Rise Set
Actual Time 7:33 AM PDT 6:01 PM PDT
Civil Twilight 7:05 AM PDT 6:29 PM PDT
Nautical Twilight 6:33 AM PDT 7:01 PM PDT
Astronomical Twilight 6:02 AM PDT 7:32 PM PDT
Moon 8:54 PM PDT (11/2) 10:56 AM PDT (11/2)
Length of Visible Light 11h 24m
Length of Day
10h 28m
Waning Gibbous, 86% of the Moon is Illuminated
Nov 2
Waning Gibbous
Nov 6
Last Quarter
Nov 13
New
Nov 20
First Quarter
Nov 28
Full

Hourly Weather History & Observations

Time (PDT) Temp. Dew Point Humidity Pressure Visibility Wind Dir Wind Speed Gust Speed Precip Events Conditions
12:15 AM 53.6 °F 53.6 °F 100% 30.04 in 10.0 mi Calm Calm - N/A   Clear
12:35 AM 51.8 °F 51.8 °F 100% 30.05 in 10.0 mi Calm Calm - N/A   Clear
12:55 AM 50.0 °F 50.0 °F 100% 30.05 in 10.0 mi Calm Calm - N/A   Clear
1:15 AM 48.2 °F 48.2 °F 100% 30.06 in 7.0 mi Calm Calm - N/A   Clear
1:35 AM 50.0 °F 48.2 °F 94% 30.06 in 10.0 mi Calm Calm - N/A   Clear
1:55 AM 50.0 °F 50.0 °F 100% 30.05 in 5.0 mi Calm Calm - N/A   Clear
2:15 AM 51.8 °F 51.8 °F 100% 30.05 in 10.0 mi Calm Calm - N/A   Clear
2:35 AM 51.8 °F 50.0 °F 94% 30.05 in 10.0 mi Calm Calm - N/A   Clear
2:55 AM 50.0 °F 48.2 °F 94% 30.05 in 10.0 mi Calm Calm - N/A   Clear
3:15 AM 51.8 °F 48.2 °F 88% 30.04 in 10.0 mi Calm Calm - N/A   Clear
3:35 AM 51.8 °F 48.2 °F 88% 30.04 in 10.0 mi Calm Calm - N/A   Clear
3:55 AM 51.8 °F 48.2 °F 88% 30.05 in 10.0 mi Calm Calm - N/A   Clear
4:15 AM 51.8 °F 48.2 °F 88% 30.04 in 10.0 mi Calm Calm - N/A   Clear
4:35 AM 51.8 °F 46.4 °F 82% 30.04 in 10.0 mi Calm Calm - N/A   Clear
4:55 AM 48.2 °F 46.4 °F 93% 30.04 in 10.0 mi Calm Calm - N/A   Clear
5:15 AM 50.0 °F 46.4 °F 87% 30.04 in 10.0 mi Calm Calm - N/A   Clear
5:35 AM 48.2 °F 46.4 °F 93% 30.04 in 10.0 mi Calm Calm - N/A   Clear
5:55 AM 48.2 °F 46.4 °F 93% 30.04 in 10.0 mi Calm Calm - N/A   Clear
6:15 AM 50.0 °F 46.4 °F 87% 30.04 in 10.0 mi East 6.9 mph - N/A   Clear
6:35 AM 48.2 °F 44.6 °F 87% 30.05 in 10.0 mi ESE 3.5 mph - N/A   Clear
7:15 AM 48.2 °F 44.6 °F 87% 30.04 in 10.0 mi Calm Calm - N/A   Clear
7:35 AM 48.2 °F 44.6 °F 87% 30.04 in 10.0 mi Calm Calm - N/A   Clear
7:55 AM 50.0 °F 44.6 °F 82% 30.04 in 10.0 mi East 3.5 mph - N/A   Clear
8:15 AM 51.8 °F 44.6 °F 76% 30.04 in 10.0 mi Calm Calm - N/A   Clear
8:35 AM 51.8 °F 44.6 °F 76% 30.05 in 10.0 mi Calm Calm - N/A   Clear
8:55 AM 53.6 °F 46.4 °F 77% 30.06 in 10.0 mi Calm Calm - N/A   Clear
9:15 AM 55.4 °F 46.4 °F 72% 30.06 in 10.0 mi Calm Calm - N/A   Clear
9:35 AM 55.4 °F 46.4 °F 72% 30.07 in 10.0 mi Calm Calm - N/A   Clear
9:55 AM 57.2 °F 46.4 °F 67% 30.07 in 10.0 mi Calm Calm - N/A   Clear
10:15 AM 60.8 °F 46.4 °F 59% 30.07 in 10.0 mi Calm Calm - N/A   Clear
10:35 AM 60.8 °F 48.2 °F 63% 30.08 in 10.0 mi Calm Calm - N/A   Clear
10:55 AM 60.8 °F 50.0 °F 68% 30.08 in 10.0 mi Calm Calm - N/A   Clear
11:15 AM 60.8 °F 48.2 °F 63% 30.08 in 10.0 mi Calm Calm - N/A   Clear
11:35 AM 60.8 °F 48.2 °F 63% 30.08 in 10.0 mi Calm Calm - N/A   Clear
11:55 AM 62.6 °F 48.2 °F 59% 30.08 in 10.0 mi Calm Calm - N/A   Clear
12:15 PM 64.4 °F 46.4 °F 52% 30.07 in 10.0 mi Calm Calm - N/A   Clear
12:35 PM 64.4 °F 48.2 °F 56% 30.06 in 10.0 mi Calm Calm - N/A   Clear
12:55 PM 64.4 °F 48.2 °F 56% 30.05 in 10.0 mi WNW 3.5 mph - N/A   Clear
1:15 PM 66.2 °F 48.2 °F 52% 30.05 in 10.0 mi WNW 5.8 mph - N/A   Clear
1:35 PM 64.4 °F 51.8 °F 64% 30.05 in 10.0 mi West 8.1 mph - N/A   Clear
1:55 PM 64.4 °F 51.8 °F 64% 30.04 in 10.0 mi Calm Calm - N/A   Clear
2:15 PM 64.4 °F 50.0 °F 59% 30.04 in 10.0 mi West 5.8 mph - N/A   Clear
2:35 PM 66.2 °F 51.8 °F 60% 30.04 in 10.0 mi West 6.9 mph - N/A   Clear
2:55 PM 62.6 °F 51.8 °F 68% 30.04 in 10.0 mi WNW 4.6 mph - N/A   Clear
3:15 PM 64.4 °F 53.6 °F 68% 30.04 in 10.0 mi Calm Calm - N/A   Clear
3:35 PM 64.4 °F 51.8 °F 64% 30.04 in 10.0 mi Calm Calm - N/A   Clear
3:55 PM 62.6 °F 51.8 °F 68% 30.04 in 10.0 mi Calm Calm - N/A   Clear
4:15 PM 62.6 °F 51.8 °F 68% 30.05 in 10.0 mi West 6.9 mph - N/A   Clear
4:35 PM 62.6 °F 51.8 °F 68% 30.05 in 10.0 mi West 3.5 mph - N/A   Clear
4:55 PM 60.8 °F 51.8 °F 72% 30.05 in 10.0 mi Calm Calm - N/A   Clear
5:15 PM 60.8 °F 51.8 °F 72% 30.04 in 10.0 mi Calm Calm - N/A   Clear
5:35 PM 60.8 °F 51.8 °F 72% 30.04 in 10.0 mi Calm Calm - N/A   Clear
5:55 PM 59.0 °F 51.8 °F 77% 30.04 in 10.0 mi Calm Calm - N/A   Clear
6:15 PM 59.0 °F 51.8 °F 77% 30.05 in 10.0 mi Calm Calm - N/A   Clear
6:35 PM 57.2 °F 51.8 °F 82% 30.04 in 10.0 mi Calm Calm - N/A   Clear
6:55 PM 55.4 °F 51.8 °F 88% 30.05 in 10.0 mi Calm Calm - N/A   Clear
7:15 PM 53.6 °F 51.8 °F 94% 30.05 in 10.0 mi Calm Calm - N/A   Clear
7:35 PM 53.6 °F 51.8 °F 94% 30.05 in 10.0 mi Calm Calm - N/A   Clear
8:15 PM 51.8 °F 50.0 °F 94% 30.05 in 10.0 mi Calm Calm - N/A   Clear
8:35 PM 51.8 °F 50.0 °F 94% 30.05 in 10.0 mi Calm Calm - N/A   Clear
8:55 PM 51.8 °F 48.2 °F 88% 30.06 in 10.0 mi Calm Calm - N/A   Clear
9:15 PM 53.6 °F 51.8 °F 94% 30.06 in 10.0 mi Calm Calm - N/A   Clear
9:35 PM 51.8 °F 51.8 °F 100% 30.06 in 10.0 mi Calm Calm - N/A   Clear
9:55 PM 53.6 °F 51.8 °F 94% 30.07 in 10.0 mi Calm Calm - N/A   Clear
10:15 PM 53.6 °F 51.8 °F 94% 30.07 in 10.0 mi Calm Calm - N/A   Clear
10:35 PM 53.6 °F 51.8 °F 94% 30.07 in 10.0 mi Calm Calm - N/A   Clear
11:15 PM 53.6 °F 51.8 °F 94% 30.07 in 10.0 mi Calm Calm - N/A   Clear
11:35 PM 53.6 °F 51.8 °F 94% 30.07 in 10.0 mi Calm Calm - N/A   Clear